Spokane, WA
on Tuesday, January 22, 2013

Tuesday
Previous Day Next Day
Daily Summary
 ActualAverageRecord
Temperature
Mean Temperature °F 30°F  
Max Temperature 24°F 35°F 56°F (1919)
Min Temperature 6°F 26°F -11°F (1969)
Degree Days
Heating Degree Days 50 34  
Month to date heating degree days 941 793  
Since 1 July heating degree days 3366 3627  
Cooling Degree Days 0 0  
Month to date cooling degree days 0 0  
Year to date cooling degree days 0 0  
Moisture
Dew Point 15°F   
Average Humidity 84    
Maximum Humidity 92    
Minimum Humidity 76    
Precipitation
Precipitation 0.00 in 0.05 in 0.50 in (2003)
Month to date precipitation 1.05 1.34  
Year to date precipitation 1.05 1.34  
Snow
Snow 0.00 in 0.30 in 3.90 in (1982)
Month to date snowfall 11.8 8.9  
Since 1 July snowfall 35.8 31.0  
Snow Depth 1.00 in   
Wind
Wind Speed 3 mph   
Max Wind Speed 7 mph   
Max Gust Speed 8 mph   

Key: T is trace of precipitation, MM is missing value
Source: NWS Daily Summary
Time(PST)TemperatureDew PointHumidity Pressure Visibility Wind DirectionWind SpeedGust SpeedPrecipitationEvents Conditions
12:34 AM 6.8°F 3.2°F 85% 30.25 in 1.0 miles WSW 5.8 mph - N/A   Overcast
12:53 AM 8.1°F 5.0°F 87% 30.38 in 0.5 miles WSW 4.6 mph - N/A   Overcast
1:23 AM 8.6°F 6.8°F 92% 30.26 in 0.2 miles WSW 3.5 mph - N/A Fog Light Freezing Fog
1:53 AM 10.0°F 7.0°F 87% 30.38 in 0.2 miles Calm Calm - N/A Fog Light Freezing Fog
2:53 AM 12.0°F 7.0°F 80% 30.36 in 0.1 miles Calm Calm - N/A Fog Light Freezing Fog
3:53 AM 15.1°F 10.9°F 84% 30.34 in 0.1 miles Calm Calm - N/A Fog Light Freezing Fog
4:53 AM 16.0°F 12.0°F 84% 30.34 in 0.2 miles North 4.6 mph - N/A Fog Light Freezing Fog
5:53 AM 16.0°F 12.0°F 84% 30.35 in 0.2 miles Calm Calm - N/A Fog Light Freezing Fog
6:53 AM 16.0°F 12.0°F 84% 30.35 in 0.2 miles NE 3.5 mph - N/A Fog Light Freezing Fog
7:53 AM 16.0°F 12.0°F 84% 30.35 in 0.2 miles NNE 4.6 mph - N/A Fog Light Freezing Fog
8:53 AM 18.0°F 12.9°F 81% 30.35 in 0.1 miles Calm Calm - N/A Fog Light Freezing Fog
9:53 AM 19.0°F 14.0°F 81% 30.36 in 0.1 miles NNW 4.6 mph - N/A Fog Light Freezing Fog
10:53 AM 21.0°F 16.0°F 81% 30.36 in 0.2 miles Calm Calm - N/A Fog Light Freezing Fog
11:53 AM 21.9°F 18.0°F 85% 30.34 in 0.2 miles NNE 6.9 mph - N/A Fog Light Freezing Fog
12:53 PM 23.0°F 19.0°F 85% 30.31 in 0.2 miles NE 4.6 mph - N/A Fog Light Freezing Fog
1:53 PM 24.1°F 19.9°F 84% 30.29 in 0.2 miles NNE 3.5 mph - N/A Fog Light Freezing Fog
2:53 PM 23.0°F 19.9°F 88% 30.27 in 0.2 miles NNW 3.5 mph - N/A Fog Light Freezing Fog
3:10 PM 23.0°F 19.4°F 86% 30.15 in 1.0 miles Calm Calm - N/A   Overcast
3:53 PM 23.0°F 19.9°F 88% 30.26 in 0.2 miles NNE 3.5 mph - N/A   Overcast
4:37 PM 23.0°F 19.4°F 86% 30.16 in 1.0 miles Calm Calm - N/A   Overcast
4:53 PM 21.9°F 19.9°F 92% 30.25 in 0.5 miles Calm Calm - N/A   Overcast
5:43 PM 23.0°F 19.4°F 86% 30.13 in 0.1 miles East 3.5 mph - N/A Fog Light Freezing Fog
5:53 PM 23.0°F 19.9°F 88% 30.24 in 0.1 miles ENE 3.5 mph - N/A Fog Light Freezing Fog
6:53 PM 21.9°F 19.9°F 92% 30.25 in 0.1 miles Calm Calm - N/A Fog Light Freezing Fog
7:53 PM 21.9°F 19.0°F 89% 30.23 in 0.1 miles ENE 3.5 mph - N/A Fog Light Freezing Fog
8:53 PM 21.9°F 19.0°F 89% 30.22 in 0.1 miles NNE 3.5 mph - N/A Fog Light Freezing Fog
9:53 PM 21.9°F 19.0°F 89% 30.22 in 0.5 miles NE 3.5 mph - N/A   Mist
10:53 PM 21.9°F 19.0°F 89% 30.22 in 0.5 miles North 3.5 mph - N/A   Overcast
11:39 PM 21.2°F 19.4°F 93% 30.11 in 1.0 miles NNE 3.5 mph - N/A   Overcast
11:53 PM 21.0°F 19.0°F 92% 30.20 in 1.0 miles Calm Calm - N/A   Overcast
Moon Phase
Jan. 22 Jan. 26 Feb. 03 Feb. 10 Feb. 17
Sunrise:07:27 AM (PST) Moon Rise:12:59 PM (PST)1/22
Sunset:04:36 PM (PST) Moon Set:03:56 AM (PST)1/22

Copyright © 2014 The Weather Underground, Inc.